Regional Weather Roundup
Issued by NWS

Home | Current Version | Previous Version | Graphics & Text | Print | Product List | Glossary On
Versions: 1 2 3 4 5 6 7 8 9 10 11 12 13 14 15 16 17 18 19 20 21 22 23 24 25 26 27 28 29 30 31 32 33 34 35 36 37 38 39 40 41 42 43 44 45 46 47 48 49 50
335
ASUS44 KLIX 161105
RWRLA
LOUISIANA WEATHER ROUNDUP
NATIONAL WEATHER SERVICE NEW ORLEANS LA
600 AM CDT TUE SEP 16 2014

NOTE: "FAIR" INDICATES FEW OR NO CLOUDS BELOW 12,000 FEET WITH NO
      SIGNIFICANT WEATHER AND/OR OBSTRUCTIONS TO VISIBILITY.
      SKY/WX - SKY CONDITION AND SIGNIFICANT WEATHER.
      TMP - AIR TEMPERATURE.    DP   - DEWPOINT TEMPERATURE.
      RH  - RELATIVE HUMIDITY.  PRES - PRESSURE.
      HX  - HEAT INDEX.         WCI  - WIND CHILL INDEX.

*  THESE STATIONS ARE NOT NWS OR FAA STATIONS AND ARE NOT UNDER
   NWS QUALITY CONTROL.

LAZ040-048-061>063-065-066-069-161200-
SOUTHEAST LOUISIANA

CITY           SKY/WX    TMP DP  RH WIND       PRES   REMARKS
N.O. AUDUBON     N/A     78  77  95 MISG        N/A
N.O. INTL ARPT PTCLDY    76  74  93 CALM      30.05S
N.O. LAKEFRONT CLEAR     81  76  84 NW7       30.05S
N.O. DOWNTOWN* FAIR      81  72  74 CALM      30.06S
SLIDELL        CLEAR     73  70  90 CALM      30.05R
BATON ROUGE    CLEAR     73  72  96 CALM      30.06S
BOOTHVILLE     LGT RAIN  77  76  96 SW5       30.07S
BELLE CHASSE   MOCLDY    75  71  87 CALM      30.05S
BOGALUSA*      CLOUDY    74  71  89 CALM      30.08R FOG
GALLIANO*      NOT AVBL
NEW ROADS*     FAIR      72  71  98 CALM      30.06S FOG
GONZALES*      FAIR      73  73 100 CALM      30.06R
HAMMOND*       NOT AVBL
HOUMA*         PTCLDY    73  72  94 CALM      30.06S
PORT FOURCHON* CLOUDY    77  73  88 NW7G14    30.09S FOG

$$

LAZ041-044-053-054-161200-
SOUTHWEST LOUISIANA

CITY           SKY/WX    TMP DP  RH WIND       PRES   REMARKS
LAKE CHARLES   PTCLDY    75  72  90 CALM      30.05S
LAFAYETTE      CLEAR     74  74 100 CALM      30.06R
PATTERSON      CLOUDY    75  75 100 CALM      30.08S VSB<1/4
SALT POINT       N/A     80  77  90 CALM      30.05R
NEW IBERIA     CLEAR     76  74  93 NE5       30.06S
CHENAULT AIRPK CLEAR     75  73  94 CALM      30.06S

$$

LAZ027-028-161200-
CENTRAL LOUISIANA

CITY           SKY/WX    TMP DP  RH WIND       PRES   REMARKS
FORT POLK      CLOUDY    74  72  93 CALM      30.07R
ALEXANDRIA INT MOCLDY    74  70  87 NE6       30.05S
ALEXANDRIA     CLOUDY    74  70  87 CALM      30.07S

$$

LAZ001-002-161200-
NORTHWEST LOUISIANA

CITY           SKY/WX    TMP DP  RH WIND       PRES   REMARKS
SHREVEPORT     CLOUDY    74  69  85 NE5       30.09R
BARKSDALE AFB  LGT RAIN  71  70  95 NE5       30.09S
DTN SHREVEPORT LGT RAIN  72  69  90 CALM      30.09S

$$

LAZ014-016-161200-
NORTHEAST LOUISIANA

CITY           SKY/WX    TMP DP  RH WIND       PRES   REMARKS
MONROE         CLOUDY    71  68  90 CALM      30.10R
TALLULAH       MOCLDY    72  68  87 N3        30.08S

$$




USA.gov is the U.S. government's official web portal to all federal, state and local government web resources and services.